TimeEDT,TemperatureF,Dew PointF,Humidity,Sea Level PressureIn,VisibilityMPH,Wind Direction,Wind SpeedMPH,Gust SpeedMPH,PrecipitationIn,Events,Conditions,WindDirDegrees,DateUTC
12:53 AM,61.0,57.9,90,30.05,10.0,Variable,3.5,-,0.00,Rain,Light Rain,0,2013-07-26 04:53:00
1:53 AM,62.1,57.9,86,30.03,10.0,North,6.9,-,0.00,Rain,Light Rain,350,2013-07-26 05:53:00
2:53 AM,62.1,59.0,90,30.01,8.0,North,4.6,-,0.03,Rain,Light Rain,10,2013-07-26 06:53:00
3:53 AM,62.1,59.0,90,30.00,8.0,NNW,5.8,-,0.07,Rain,Rain,340,2013-07-26 07:53:00
4:53 AM,62.1,59.0,90,30.00,8.0,North,6.9,-,0.06,Rain,Rain,360,2013-07-26 08:53:00
5:07 AM,62.6,59.0,88,30.00,8.0,North,8.1,-,0.02,Rain,Light Rain,350,2013-07-26 09:07:00
5:53 AM,62.1,59.0,90,30.00,9.0,NNW,6.9,-,0.03,Rain,Light Rain,340,2013-07-26 09:53:00
6:01 AM,62.6,59.0,88,30.00,9.0,NNW,6.9,-,0.00,Rain,Light Rain,330,2013-07-26 10:01:00
6:53 AM,63.0,59.0,87,30.00,9.0,NNW,5.8,-,0.03,Rain,Light Rain,330,2013-07-26 10:53:00
7:53 AM,63.0,59.0,87,30.02,10.0,NNW,5.8,-,0.00,Rain,Light Rain,330,2013-07-26 11:53:00
8:13 AM,62.6,59.0,88,30.02,10.0,North,8.1,-,0.00,Rain,Light Rain,350,2013-07-26 12:13:00
8:31 AM,62.6,59.0,88,30.01,7.0,North,11.5,-,0.02,Rain,Light Rain,360,2013-07-26 12:31:00
8:53 AM,63.0,59.0,87,30.02,8.0,NW,6.9,-,0.02,Rain,Light Rain,310,2013-07-26 12:53:00
9:10 AM,62.6,60.8,94,30.02,10.0,NNW,5.8,-,0.00,Rain,Light Rain,340,2013-07-26 13:10:00
9:53 AM,63.0,60.1,90,30.02,8.0,North,5.8,-,0.02,Rain,Light Rain,350,2013-07-26 13:53:00
10:53 AM,64.0,61.0,90,30.02,10.0,NW,5.8,-,0.01,Rain,Light Rain,320,2013-07-26 14:53:00
11:53 AM,66.9,61.0,81,30.01,10.0,NNW,8.1,-,0.00,,Overcast,330,2013-07-26 15:53:00
12:53 PM,71.1,62.1,73,30.01,10.0,NNW,6.9,-,N/A,,Mostly Cloudy,330,2013-07-26 16:53:00
1:53 PM,72.0,61.0,68,30.01,10.0,NNW,8.1,-,N/A,,Overcast,340,2013-07-26 17:53:00
2:53 PM,73.0,62.1,68,30.01,10.0,Calm,Calm,-,N/A,,Mostly Cloudy,0,2013-07-26 18:53:00
3:10 PM,73.4,62.6,69,30.01,10.0,Calm,Calm,-,N/A,,Mostly Cloudy,0,2013-07-26 19:10:00
3:17 PM,71.6,62.6,73,30.01,10.0,SW,3.5,-,N/A,,Mostly Cloudy,220,2013-07-26 19:17:00
3:53 PM,71.1,63.0,75,30.00,10.0,Calm,Calm,-,0.00,Rain,Light Rain,0,2013-07-26 19:53:00
4:53 PM,73.0,64.9,76,30.00,10.0,Calm,Calm,-,0.00,,Clear,0,2013-07-26 20:53:00
5:53 PM,75.0,64.0,69,29.99,10.0,SSE,3.5,-,N/A,,Clear,160,2013-07-26 21:53:00
6:53 PM,75.9,66.0,71,29.99,10.0,Calm,Calm,-,N/A,,Clear,0,2013-07-26 22:53:00
7:53 PM,71.1,66.0,84,30.01,10.0,South,5.8,-,N/A,,Clear,180,2013-07-26 23:53:00
8:53 PM,68.0,64.0,87,30.02,10.0,South,3.5,-,N/A,,Clear,170,2013-07-27 00:53:00
9:53 PM,66.0,64.0,93,30.04,10.0,Calm,Calm,-,N/A,,Partly Cloudy,0,2013-07-27 01:53:00
10:53 PM,64.9,63.0,93,30.04,9.0,Calm,Calm,-,N/A,,Mostly Cloudy,0,2013-07-27 02:53:00
11:53 PM,64.9,63.0,93,30.05,8.0,SSE,3.5,-,N/A,,Scattered Clouds,150,2013-07-27 03:53:00